Regional Weather Roundup
Issued by NWS

Home | Current Version | Previous Version | Graphics & Text | Print | Product List | Glossary On
Versions: 1 2 3 4 5 6 7 8 9 10 11 12 13 14 15 16 17 18 19 20 21 22 23 24 25 26 27 28 29 30 31 32 33 34 35 36 37 38 39 40 41 42 43 44 45 46 47 48 49 50
000
ASUS43 KMPX 200910
RWRMN
WEATHER ROUNDUP FOR MINNESOTA
NATIONAL WEATHER SERVICE TWIN CITIES/CHANHASSEN MN
400 AM CDT SUN APR 20 2014


NOTE: "FAIR" INDICATES FEW OR NO CLOUDS BELOW 12,000 FEET WITH NO
SIGNIFICANT WEATHER AND/OR OBSTRUCTIONS TO VISIBILITY. N/A MEANS
CURRENT SKY AND/OR WEATHER CONDITIONS ARE NOT AVAILABLE.

MNZ060>063-068>070-201000-
   Twin Cities Metro

CITY           SKY/WX    TMP DP  RH WIND       PRES   REMARKS
TWIN CITIES    CLOUDY    49  49 100 CALM      30.02R
ST PAUL        CLOUDY    50  50 100 NE3       30.02S FOG
CRYSTAL        FOG       48  47  96 CALM      30.00F VSB 1/2
BLAINE         FOG       48  48 100 CALM      30.01S VSB<1/4
EDEN PRAIRIE   CLOUDY    51  50  96 CALM      30.00S FOG
LAKEVILLE      FOG       48  48 100 SE3       30.01F VSB 1/2
SOUTH ST PAUL  CLOUDY    55  53  94 S3        30.01S FOG
LAKE ELMO      CLOUDY    52  50  93 CALM      30.02S FOG
$$
MNZ001>005-007-008-013>017-022>024-027-028-201000-
   Northwest Minnesota

CITY           SKY/WX    TMP DP  RH WIND       PRES   REMARKS
BEMIDJI        CLEAR     31  29  90 CALM      30.02S
HALLOCK        CLOUDY    32  30  93 CALM      30.00R
ROSEAU         CLEAR     30  27  86 CALM      30.00S
WARROAD        CLEAR     32  28  86 SW3       30.00S
THIEF RVR FALL CLEAR     34  30  86 CALM      30.02S
CROOKSTON      CLEAR     36  34  93 SE5       30.01F
FOSSTON        CLEAR     30  25  80 CALM      30.02F
DETROIT LAKES  CLEAR     37  36  93 CALM      30.03S
MOORHEAD       CLEAR     36  36 100 CALM      30.04R
PARK RAPIDS    CLEAR     36  33  89 CALM      30.03R
$$
MNZ006-009>011-018-025>026-201000-
   North Central Minnesota

CITY           SKY/WX    TMP DP  RH WIND       PRES   REMARKS
BAUDETTE       CLEAR     33  31  92 S5        30.01R WCI  29
FLAG ISLAND    CLEAR     32  28  86 SW6       29.98S WCI  26
INTL FALLS     CLEAR     36  31  82 W5        30.00R
WASKISH        CLEAR     30  28  93 CALM      30.01F FOG
BIG FORK       CLEAR     30  28  93 CALM      30.03R
LONGVILLE      CLEAR     30  30 100 CALM      30.02S
GRAND RAPIDS   CLEAR     37  32  81 N3        30.02R
CRANE LAKE     CLEAR     25  23  93 CALM      30.03R
ORR            CLEAR     36  34  93 MISG      29.99R
COOK           CLEAR     37  36  93 CALM      30.02R
$$
MNZ012-019>021-037-201000-
   Northeast Minnesota

CITY           SKY/WX    TMP DP  RH WIND       PRES   REMARKS
DULUTH         CLEAR     35  33  92 CALM      30.01R
ELY            CLEAR     30  28  93 W3        30.00R
HIBBING        CLEAR     29  25  85 CALM      30.01R
EVELETH        CLEAR     28  28 100 CALM      30.02R FOG
DULUTH HARBOR  CLEAR     28  28 100 CALM      30.05R FOG
TWO HARBORS    CLEAR     28  23  80 CALM      30.00R
SILVER BAY     CLEAR     25  25 100 CALM      29.99S
GRAND MARAIS     N/A     30  28  92 CALM      30.00F
G MARAIS ARPRT CLEAR     37  34  87 SW5       29.99R
$$
MNZ029>031-032-039>041-046>048-054>057-064-201000-
   West Central Minnesota

CITY           SKY/WX    TMP DP  RH WIND       PRES   REMARKS
FERGUS FALLS   CLEAR     43  34  70 E8        30.00F
WHEATON        CLEAR     43  37  81 CALM      30.05R
MORRIS         CLEAR     37  32  81 NE12      30.01S
ALEXANDRIA     CLEAR     43  35  73 NE7       30.04R
ELBOW LAKE     FAIR      44  37  76 NE8       30.02S
WADENA         CLEAR     32  28  86 CALM      30.03S
GLENWOOD       CLEAR     43  34  70 N8        30.03R
APPLETON       CLEAR     36  30  80 N7        30.01R
BENSON         CLEAR     30  30 100 CALM      30.02R
ORTONVILLE     CLEAR     39  34  81 N7        30.02R
MADISON        CLEAR     41  34  75 W6        30.02R
WILLMAR        FAIR      37  36  93 CALM      30.03R FOG
$$
MNZ033>034-036-042>043-049>051-058-059-201000-
   Central Minnesota

CITY           SKY/WX    TMP DP  RH WIND       PRES   REMARKS
ST CLOUD       MOCLDY    34  32  93 CALM      30.01S FOG
SAUK CENTRE    FAIR      37  34  89 N3        30.04R
PAYNESVILLE    CLEAR     33  32  96 CALM      30.02S
AITKIN         CLEAR     36  30  80 CALM      30.02R
PINE RIVER     CLEAR     30  27  86 CALM      30.06S
BRAINERD       CLEAR     39  30  70 S3        30.04R
STAPLES        CLEAR     37  34  87 CALM      30.03S
LONG PRAIRIE   FAIR      43  34  70 N6        30.04R
LITTLE FALLS   CLEAR     36  32  87 CALM      30.04R
LITCHFIELD     FOG       41  41 100 CALM      30.02S VSB 1/2
BUFFALO        CLEAR     38  36  91 CALM      30.02S FOG
MAPLE LAKE     FOG       35  35  99 CALM      30.02S VSB 1
$$
MNZ037-044-045-052-053-201000-
   East Central Minnesota

CITY           SKY/WX    TMP DP  RH WIND       PRES   REMARKS
PRINCETON      FOG       34  30  86 CALM      30.02S VSB<1/4
MORA           CLEAR     32  30  93 CALM      30.03S FOG
CAMBRIDGE      CLEAR     36  28  75 CALM      30.00S HAZE
RUSH CITY      PTCLDY    33  32  96 CALM      30.02S FOG
MOOSE LAKE     CLEAR     30  30 100 CALM      30.01R
HINCKLEY       FAIR      30  30 100 CALM      30.02R FOG
CLOQUET        CLEAR     30  28  93 W5        30.01S FOG     WCI  25
MCGREGOR       CLEAR     37  36  93 CALM      30.03R
$$
MNZ071>073-080-081-089-090-097-098-201000-
   Southwest Minnesota

CITY           SKY/WX    TMP DP  RH WIND       PRES   REMARKS
MONTEVIDEO     CLEAR     39  32  75 W3        30.03R
GRANITE FALLS  CLEAR     39  35  87 S3        30.03R
CANBY          CLEAR     44  33  65 NW8       30.04R
MARSHALL       CLEAR     43  34  70 SW3       30.00F
REDWOOD FALLS  PTCLDY    50  46  86 CALM      30.01R
OLIVIA         CLEAR     43  39  87 CALM      30.01S FOG
PIPESTONE      CLOUDY    52  39  62 NE5       30.01R
WINDOM         MOCLDY    50  41  71 NE3       30.02S
WORTHINGTON    MOCLDY    52  39  62 E5        30.03S
JACKSON        MOCLDY    50  43  76 E6        30.01F
TRACY          MOCLDY    52  43  70 CALM      30.01S
SLAYTON        CLOUDY    51  43  73 CALM      30.03R
$$
MNZ065>067-074>077-082>085-091>093-201000-
   South Central Minnesota

CITY           SKY/WX    TMP DP  RH WIND       PRES   REMARKS
MANKATO        CLOUDY    54  45  71 E6        30.02S
NEW ULM        LGT RAIN  52  48  87 CALM      30.02R
ST JAMES       MOCLDY    52  46  82 CALM      30.02S
FAIRMONT       CLOUDY    54  45  71 CALM      30.03S
GLENCOE        MOCLDY    48  46  90 CALM      30.00S FOG
FARIBAULT      HAZE      52  46  82 SW3       30.03S VSB 1/4
OWATONNA       CLOUDY    52  50  93 E5        30.02S FOG
WASECA         CLOUDY    54  52  94 NE3       30.04S
ALBERT LEA     LGT RAIN  59  48  67 S6        30.03S
$$
MNZ078>079-086>088-094>096-201000-
   Southeast Minnesota

CITY           SKY/WX    TMP DP  RH WIND       PRES   REMARKS
ROCHESTER      CLOUDY    56  46  69 S12       30.04R
RED WING       CLOUDY    52  48  87 CALM      30.02S
STANTON        FOG       50  49  93 CALM      30.01S VSB 1/2
DODGE CENTER   CLOUDY    57  48  72 S6        30.03S
WINONA           N/A    N/A N/A N/A MISG        N/A
AUSTIN         CLOUDY    57  46  67 CALM      30.04R
PRESTON        CLOUDY    58  44  60 S10       30.05S
$$
ABBREVIATIONS USED IN REMARKS
   TC - TEMPERATURES IN CELSIUS
  WCI - WIND CHILL INDEX
   HX - HEAT INDEX
  VSB - VISIBILITY
$$


USA.gov is the U.S. government's official web portal to all federal, state and local government web resources and services.